Probability
31 35 38 38 38 38 39 37 36 36 35 33 30 28 27 27 23 19 18 22 25 23 17 13 11 12 14 16 17 15 12 12 11 8 7 9 10 11 11 10 9 9 9
33 35 37 37 35 35 35 35 34 34 32 30 28 27 26 25 22 19 18 20 23 21 15 12 12 13 14 15 14 12 10 8 8 8 8 9 9 10 10 10 10 9 8
33 33 34 33 31 30 31 32 33 33 31 28 26 25 24 22 20 19 18 18 19 17 13 11 12 13 13 13 13 11 8 6 5 7 9 9 9 8 9 9 9 8 8
29 29 29 29 27 26 27 30 33 34 32 29 26 25 23 21 19 18 17 17 15 13 11 11 12 12 12 11 11 10 8 5 4 5 7 8 8 7 6 7 6 7 7
22 23 24 24 24 25 25 26 31 33 32 29 27 26 23 21 19 18 17 15 14 12 11 11 10 10 10 10 9 9 7 5 4 4 4 5 6 5 3 2 2 4 6
16 17 19 20 22 23 23 23 26 29 29 27 26 25 23 20 19 18 15 12 11 12 10 10 10 10 10 10 8 8 7 6 5 4 4 4 4 3 1 0 0 2 4
13 14 16 19 21 21 21 22 23 24 24 22 23 24 22 19 18 17 13 9 9 11 10 10 10 11 11 10 9 9 9 8 7 5 4 4 4 3 2 1 1 2 3
13 14 16 19 20 19 20 20 21 22 21 19 21 22 21 18 18 17 12 8 8 9 10 10 10 10 9 8 8 8 8 8 7 6 5 5 4 3 3 2 2 2 2
14 15 17 19 19 18 19 19 20 22 21 19 20 20 18 15 15 15 11 7 7 8 9 10 10 8 6 6 5 6 6 6 6 6 6 5 3 3 4 3 1 1 1
13 14 17 18 18 18 19 19 20 20 20 19 18 16 14 12 12 12 11 9 9 9 9 10 9 7 5 5 4 4 5 5 4 4 4 3 3 3 3 2 1 0 0
9 11 14 17 18 18 19 18 18 18 17 17 16 14 12 11 11 11 11 12 12 11 10 9 8 6 6 6 5 5 5 5 4 4 3 3 4 3 2 2 1 1 2
5 7 11 15 17 17 17 17 17 16 15 15 15 14 13 12 13 12 10 11 12 11 10 8 7 6 6 6 6 6 6 5 5 5 5 6 6 5 4 3 2 2 3
5 7 12 15 17 17 17 16 16 15 15 14 14 14 14 14 14 13 10 9 9 10 9 7 5 5 6 6 5 5 5 5 6 6 6 7 8 7 6 4 3 3 4
9 12 15 18 18 18 17 16 15 15 14 13 13 13 13 13 13 12 10 7 7 8 7 5 4 4 4 4 4 4 4 4 6 7 7 7 7 6 5 4 3 2 4
12 15 17 18 18 17 16 14 13 12 11 11 10 10 11 12 11 10 8 6 6 5 5 4 3 3 3 3 3 3 4 5 7 8 8 6 5 4 4 3 2 3 3
11 13 14 15 15 14 12 11 9 8 7 7 7 6 7 8 8 6 5 5 5 5 4 3 4 4 4 3 3 3 4 6 7 8 7 5 4 3 2 1 1 2 2
7 8 10 12 12 11 10 8 6 4 4 3 3 3 2 4 5 3 2 3 4 4 3 4 5 6 4 2 1 1 3 6 7 7 6 5 4 3 3 1 1 2 2
6 6 8 9 9 9 8 7 4 3 2 1 1 1 0 1 2 2 1 1 1 2 3 5 6 5 3 1 0 0 1 4 6 6 6 6 5 4 3 2 3 3 3
6 7 7 7 7 7 7 5 3 2 1 0 0 0 0 0 1 1 2 1 1 2 4 5 5 4 2 1 0 0 0 2 4 6 7 7 5 3 2 2 3 4 4
7 6 5 4 4 5 6 4 1 0 0 0 0 0 0 0 0 1 3 3 2 3 3 4 4 4 4 2 0 0 0 0 2 4 6 5 3 1 0 1 2 2 2
6 5 4 3 3 4 4 2 0 0 0 0 0 0 0 0 1 2 4 4 3 2 3 4 3 4 4 2 0 0 0 0 1 3 5 4 1 0 0 0 1 1 1
5 4 3 3 4 3 3 2 0 0 0 0 1 2 2 2 2 3 4 5 4 2 2 3 3 4 4 3 1 0 0 0 1 3 4 3 1 0 0 0 0 0 0
4 3 3 4 4 4 3 2 0 0 0 2 5 6 5 5 4 3 4 5 5 3 2 3 4 6 7 6 3 1 1 0 1 1 1 1 0 0 0 0 0 0 0
3 3 3 3 3 3 2 1 1 1 3 5 8 8 6 5 5 4 5 5 5 3 3 3 5 6 8 8 5 3 2 1 0 0 0 0 0 0 0 0 0 0 0
3 3 3 3 3 1 1 1 1 3 6 8 8 5 3 3 4 4 4 4 4 3 2 3 3 3 4 5 4 3 3 1 0 0 0 0 0 0 0 0 0 1 1
3 3 3 3 2 1 0 0 0 3 7 8 5 2 1 1 2 2 2 2 2 1 1 1 1 1 1 2 2 2 1 1 0 0 0 0 0 0 0 0 0 1 0
Wind_Speed
6 6 4 4 3 3 2 2 1 1 0 0 1 1 1 1 1 1 1 1 2 2 2 3 3 3 3 3 3 3 3 3 2 2 3 3 4 3 3 3 3 3 4
5 5 4 4 3 3 2 2 2 1 1 0 1 2 2 2 2 1 1 2 2 2 3 2 3 3 3 3 3 3 3 3 3 2 2 2 3 3 5 4 4 4 3
4 3 3 2 2 2 2 2 2 1 1 1 1 1 2 2 1 1 1 1 2 3 3 3 3 3 3 3 3 4 4 3 3 3 2 2 2 2 2 4 3 4 3
4 3 2 2 2 2 2 2 2 1 1 1 2 2 2 3 2 2 1 2 3 3 3 3 4 3 3 3 4 4 3 4 4 3 3 3 2 2 1 2 3 4 4
4 3 2 1 1 2 2 2 2 0 1 1 2 2 3 2 2 2 2 3 3 3 4 3 3 3 3 3 4 3 4 3 4 3 3 3 3 3 2 3 3 3 3
3 3 3 2 1 2 2 2 1 0 1 2 2 2 2 3 3 3 3 3 2 3 3 3 3 3 3 4 4 4 5 4 4 4 3 2 2 3 2 3 3 3 3
3 3 3 3 2 1 1 1 1 0 1 1 2 2 3 3 3 3 3 3 3 3 2 3 3 3 3 4 4 4 5 5 5 4 3 3 3 2 2 2 3 3 2
2 2 2 2 1 1 1 1 1 1 1 1 2 2 2 2 2 3 3 3 3 3 3 3 4 4 4 4 3 4 5 4 5 6 4 3 3 3 3 2 2 2 3
2 2 2 2 1 1 1 1 1 1 1 2 2 2 2 3 3 2 3 3 3 4 3 3 3 3 4 4 3 3 4 4 4 4 4 3 3 3 3 3 3 3 4
3 2 1 1 1 1 1 1 1 0 1 1 2 2 2 2 2 3 3 3 4 3 3 3 3 3 4 4 3 3 3 3 3 3 3 3 4 3 2 3 3 4 4
3 2 2 2 2 2 2 1 1 1 1 1 2 2 2 3 3 3 3 3 3 3 4 3 3 3 3 2 2 3 3 4 3 4 4 5 4 3 3 3 3 3 3
3 3 3 3 3 3 3 3 2 2 2 1 1 2 2 3 2 3 3 3 3 3 3 3 3 4 3 2 2 3 3 4 4 5 4 5 4 4 3 3 3 3 4
3 4 4 4 4 3 3 3 3 3 2 2 1 1 2 2 3 3 3 3 3 3 3 3 3 4 3 2 2 3 3 4 5 4 5 5 5 5 4 4 4 4 4
4 5 5 4 4 4 4 4 3 3 3 3 2 2 2 2 2 3 3 3 4 3 3 3 3 3 3 3 3 3 3 4 4 4 4 5 5 6 5 4 4 4 4
4 5 5 4 4 4 4 4 4 4 3 3 2 2 2 2 2 3 3 3 4 4 3 3 3 3 3 4 3 2 4 4 4 4 4 4 5 6 5 5 4 4 3
4 5 4 4 4 4 4 4 4 4 3 3 3 3 2 2 2 3 3 3 4 4 3 4 4 4 4 2 3 3 3 4 4 3 3 4 4 5 6 7 7 6 5
4 4 4 4 3 4 4 4 4 4 3 3 3 3 3 3 3 4 4 3 4 4 4 4 4 3 2 3 4 5 4 4 4 4 4 5 4 4 3 5 6 7 9
5 4 4 4 3 4 4 4 4 4 4 4 4 4 4 4 3 3 4 4 4 4 4 4 4 3 4 4 5 6 5 5 4 5 5 4 4 5 4 4 4 5 5
5 4 3 3 3 4 4 5 5 5 5 5 5 5 4 4 4 4 4 4 4 4 4 4 4 4 4 4 5 4 3 4 4 5 5 4 4 4 4 3 4 4 4
4 3 3 3 3 3 4 4 4 5 5 5 5 4 4 3 4 4 4 4 4 4 5 5 4 4 3 3 3 4 3 3 3 3 3 4 3 2 3 3 3 4 3
4 3 3 3 3 3 3 4 4 5 5 6 5 4 4 3 4 3 3 4 4 5 5 5 4 3 3 2 3 4 3 3 3 3 2 1 1 2 3 3 3 4 3
4 3 2 3 3 3 3 4 5 5 5 5 5 5 4 5 4 3 3 4 4 5 5 4 3 2 1 1 2 3 3 4 3 3 2 1 1 2 3 3 4 5 3
3 3 3 3 3 3 4 5 5 5 5 5 5 5 5 4 4 3 4 4 3 3 4 3 3 2 1 1 2 2 3 4 2 2 3 4 4 3 3 5 6 4 3
3 3 3 4 4 4 5 5 6 6 6 5 5 4 4 4 4 3 4 3 3 3 3 3 3 3 2 1 1 1 1 2 2 2 3 4 5 5 4 4 4 4 4
3 3 3 3 4 4 4 5 6 6 6 6 6 5 5 5 3 3 3 3 2 2 3 3 3 3 3 3 3 2 2 2 2 2 3 2 2 2 2 3 3 3 2
2 3 3 4 4 5 5 4 5 5 5 6 6 6 6 4 4 3 3 3 4 4 4 4 4 4 4 6 5 4 3 3 2 1 3 3 3 3 2 2 2 2 2
Wind_Direction
116 108 106 114 112 105 107 130 118 93 98 300 303 285 280 284 281 259 269 273 271 269 269 279 273 266 256 249 248 243 239 236 243 254 267 256 227 224 215 216 216 219 214
118 114 112 110 112 110 108 100 79 64 340 330 283 265 278 272 256 258 258 253 261 264 263 256 266 262 257 251 245 235 244 242 220 220 239 246 239 235 226 213 204 215 217
128 120 119 119 124 115 115 100 92 76 314 305 278 287 283 276 266 279 271 274 274 265 275 266 262 263 254 249 250 234 232 243 235 212 210 220 224 240 220 225 213 199 203
132 133 130 137 132 126 121 113 103 91 286 293 283 288 279 287 290 281 277 280 267 266 267 263 256 255 258 248 252 242 240 237 241 232 226 231 231 224 233 235 222 209 203
140 139 148 124 105 105 104 100 104 80 302 284 265 274 292 299 301 299 282 280 269 258 255 251 251 249 251 251 252 249 235 238 243 245 237 239 244 238 231 236 226 227 213
140 137 136 121 99 81 91 91 97 77 307 293 292 279 289 290 287 291 287 282 281 274 275 271 255 249 247 250 248 245 238 238 243 249 249 240 234 236 236 238 230 223 224
139 124 120 127 121 110 102 115 123 148 290 289 295 289 279 274 269 276 276 280 285 280 277 278 265 256 246 249 247 242 237 234 238 241 245 251 244 244 246 241 244 238 234
112 118 112 114 117 128 113 107 130 215 242 266 272 266 265 277 282 285 296 292 287 283 275 266 260 260 260 261 253 245 237 229 233 239 232 245 251 252 254 245 240 254 251
107 89 104 120 145 146 130 133 161 232 259 267 265 257 263 281 294 295 288 291 287 287 285 278 281 275 267 266 261 251 242 231 232 235 229 235 254 250 250 251 228 232 247
89 79 80 84 83 97 108 133 134 255 274 276 289 292 280 280 292 301 293 301 303 307 301 279 281 280 275 271 263 260 238 229 223 221 227 234 247 255 248 252 250 242 241
24 52 48 50 45 41 32 27 22 309 298 288 285 303 292 286 286 289 293 292 296 303 300 291 285 281 275 275 264 267 253 239 231 229 224 226 232 237 245 248 255 254 239
13 29 36 31 19 22 16 3 346 311 304 297 283 299 302 306 303 299 307 309 298 291 286 279 283 282 281 273 257 255 258 247 238 232 227 229 232 226 235 238 249 257 245
21 31 32 31 19 15 16 10 334 320 323 331 322 309 307 312 308 314 313 303 294 289 284 273 276 282 279 266 260 254 255 254 247 236 231 233 232 238 237 238 242 247 250
24 36 33 31 23 17 14 5 353 348 347 353 350 341 321 305 302 312 306 302 296 290 284 266 263 266 266 263 261 255 256 254 254 247 239 238 232 232 235 238 237 243 248
26 31 33 21 16 12 9 1 356 350 353 353 344 333 313 297 303 304 302 300 294 288 286 276 270 266 258 252 254 258 259 256 257 253 245 245 237 236 233 240 235 237 243
37 34 26 20 15 9 357 357 355 348 354 346 333 326 316 307 308 300 298 303 299 296 286 278 274 269 269 249 248 255 262 271 267 263 257 251 234 233 229 238 239 236 235
38 32 30 24 11 358 349 347 346 347 344 339 338 334 326 329 327 317 322 316 308 303 297 291 283 276 276 250 245 241 246 257 261 263 258 260 256 240 235 236 236 242 245
28 34 33 25 6 358 354 348 349 345 340 341 338 334 332 336 332 325 322 313 306 302 295 290 284 276 279 266 259 248 240 247 250 252 254 256 254 253 246 245 245 245 244
35 34 33 25 9 5 357 350 350 345 341 341 337 339 336 332 329 323 314 307 306 304 298 294 288 280 279 261 256 243 244 247 249 247 250 247 244 250 237 236 244 259 266
33 25 22 13 5 2 353 340 341 341 342 336 330 331 330 327 321 309 306 309 305 301 298 298 295 289 282 264 248 237 251 255 257 256 248 246 248 230 216 223 241 254 265
29 20 14 3 354 344 335 325 332 336 332 326 324 327 329 319 305 305 311 308 305 301 295 293 289 284 278 246 241 235 255 277 281 278 275 277 243 237 235 231 236 241 251
22 12 5 353 345 338 328 321 329 329 325 324 324 324 317 308 308 306 300 294 295 300 297 294 297 298 301 294 231 230 252 278 283 284 287 307 340 274 261 252 247 250 252
20 360 344 343 343 343 335 326 327 323 318 316 316 313 306 296 291 287 290 294 295 300 306 308 309 308 300 300 257 246 271 284 283 296 302 307 291 281 259 241 245 245 237
11 355 349 340 333 332 333 328 328 327 318 315 310 303 298 293 285 286 289 294 306 308 315 326 329 329 322 332 323 300 287 290 286 300 310 293 270 266 263 261 238 231 229
358 353 345 329 326 330 330 328 331 328 328 325 315 308 300 292 282 278 290 296 302 300 295 314 321 322 322 319 314 295 290 294 300 307 291 285 276 259 249 247 243 227 220
347 344 339 334 328 326 323 328 334 330 323 318 315 308 300 292 287 280 282 287 271 273 269 263 271 291 282 283 288 291 290 274 259 277 276 272 263 263 265 263 256 240 221